Regional Weather Roundup
Issued by NWS

Home | Current Version | Previous Version | Graphics & Text | Print | Product List | Glossary On
Versions: 1 2 3 4 5 6 7 8 9 10 11 12 13 14 15 16 17 18 19 20 21 22 23 24 25 26 27 28 29 30 31 32 33 34 35 36 37 38 39 40 41 42 43 44 45 46 47 48 49 50
000
ASUS45 KBOU 250407
RWRCO

WEATHER ROUNDUP FOR COLORADO
NATIONAL WEATHER SERVICE DENVER/BOULDER CO
1000 PM MDT SUN MAY 24 2015

NOTE: "FAIR" INDICATES FEW OR NO CLOUDS BELOW 12000 FEET WITH NO
SIGNIFICANT WEATHER AND/OR OBSTRUCTIONS TO VISIBILITY.

COZ001>005-013-030-031-250500-
...NORTHWEST COLORADO...

CITY           SKY/WX    TMP DP  RH WIND       PRES   REMARKS
CRAIG          CLOUDY    45  40  82 S3        29.97R
HAYDEN         CLOUDY    43  37  81 NW6       29.97R
MEEKER         CLOUDY    44  41  89 CALM      29.98R
MOUNT WERNER   NOT AVBL
STEAMBOAT SPGS CLOUDY    39  38  94 CALM      29.98R
WALDEN         CLOUDY    37  34  87 CALM      29.98R
$$

COZ006>008-011-250500-
...WEST CENTRAL VALLEYS...

CITY           SKY/WX    TMP DP  RH WIND       PRES   REMARKS
GRAND JUNCTION CLOUDY    50  49  96 CALM      29.92R
MONTROSE       LGT RAIN  49  44  83 E5        29.97R
EAGLE          CLOUDY    45  37  76 W7        29.99R
RIFLE          LGT RAIN  47  44  90 CALM      29.98R
DELTA          CLOUDY    54  45  73 MISG      29.93S
NUCLA          CLOUDY    52  37  58 E5        29.97R
$$

COZ017>023-064>068-250500-
...SOUTHWEST COLORADO...

CITY           SKY/WX    TMP DP  RH WIND       PRES   REMARKS
DURANGO        PTCLDY    49  35  58 W8        29.96S
CORTEZ         PTCLDY    47  41  80 CALM      29.96R
PAGOSA SPRINGS PTCLDY    41  40  97 CALM      30.02R
TELLURIDE      MOCLDY    40  38  92 SE5       30.07S
WOLF CREEK PAS NOT AVBL
$$

COZ009-010-012-014-032>034-037-058>063-250500-
...CENTRAL COLORADO...

CITY           SKY/WX    TMP DP  RH WIND       PRES   REMARKS
ASPEN          RAIN      38  35  89 NE3       30.00R
BUENA VISTA    CLOUDY    45  32  60 W15       29.95R
COPPER MTN     SNOW      32  28  86 W17G30    30.08R VSB<1/4 WCI  21
BERTHOUD PASS  SNOW      23  16  74 NW9G17    30.09R VSB 1/4 WCI  13
COTTONWOOD PAS CLOUDY    41  30  65 N7        30.02R
GUNNISON       MOCLDY    45  32  61 SW9       30.02R
KREMMLING      CLOUDY    37  34  87 CALM      29.99R
LEADVILLE      LGT SNOW  32  31  96 NE6       30.01S FOG     WCI  26
MONARCH PASS   FOG       28  27  93 MISG      30.18R VSB 1/4
SALIDA         CLOUDY    50  33  52 SW16G25   30.01R
SUNLIGHT       LGT SNOW  32  32 100 CALM      30.11R VSB 1
WILKERSON PASS FLURRIES  32  28  86 MISG      30.09R
$$

COZ069>075-250500-
...SAN LUIS VALLEY/SANGRE DE CRISTO MOUNTAINS...

CITY           SKY/WX    TMP DP  RH WIND       PRES   REMARKS
ALAMOSA        MOCLDY    40  36  86 N3        29.97R
LA VETA PASS   PTCLDY   N/A N/A N/A MISG      30.03R
SAGUACHE       CLOUDY    43  37  81 E3        30.00R
$$

COZ035-036-038>040-250500-
...NORTHERN COLORADO FRONT RANGE...

CITY           SKY/WX    TMP DP  RH WIND       PRES   REMARKS
DENVER INTL AP MOCLDY    51  42  71 NW13      29.88R
DMNS CITY PARK   N/A     51  40  67 N6        29.89R
AURORA         MOCLDY    47  41  78 NW13      29.89R
FRONT RANGE AP NOT AVBL
ERIE MUNI ARPT CLOUDY    49  43  79 N6        29.89R
BOULDER MUN AP CLOUDY    50  43  76 N7        29.89R
CENTENNIAL     MOCLDY    50  40  68 N8        29.89R
BROOMFIELD     NOT AVBL
FORT COLLINS   MOCLDY    48  41  76 NW7       29.89S
LONGMONT       MOCLDY    50  43  77 W3        29.90R
$$

COZ041-046-047-076>085-087-088-250500-
...PIKES PEAK/PALMER DIVIDE AND SOUTHERN FOOTHILLS...

CITY           SKY/WX    TMP DP  RH WIND       PRES   REMARKS
COLO. SPRINGS  MOCLDY    49  42  77 NW7       29.90R
A. F. ACADEMY  PTCLDY    46  40  82 N7        29.90R
ELLICOTT       NOT AVBL
FALCON         CLOUDY    46  38  72 CALM      29.92R
FORT CARSON    MOCLDY    49  42  75 W5        29.88R
LIMON          CLOUDY    47  44  90 N7        29.87R
MONUMENT HILL  NOT AVBL
TRINIDAD       PTCLDY    52  38  58 CALM      29.86R
$$

COZ042>045-048>051-090-091-250500-
...NORTHEAST COLORADO...

CITY           SKY/WX    TMP DP  RH WIND       PRES   REMARKS
GREELEY ARPT   MOCLDY    50  41  71 N8        29.86S
AKRON          CLOUDY    47  46  97 NW7       29.84R
BURLINGTON     CLOUDY    51  48  89 NE8       29.81S
WRAY           CLOUDY    52  52 100 CALM      29.82S
STERLING       CLOUDY    52  48  87 N5        29.84R
HOLYOKE        NOT AVBL
FORT MORGAN    CLOUDY    50  45  83 N9        29.85R
$$

COZ086-089-092>099-250500-
...SOUTHEAST COLORADO...

CITY           SKY/WX    TMP DP  RH WIND       PRES   REMARKS
PUEBLO         MOCLDY    53  47  79 NW6       29.84R
LA JUNTA       PTCLDY    52  47  83 W8        29.82R
LAMAR          MOCLDY    50  47  89 SW6       29.78R
SPRINGFIELD      N/A     48  45  89 NW3       29.82R
$$


USA.gov is the U.S. government's official web portal to all federal, state and local government web resources and services.